Satellite: NOAA 14
Catalog number: 23455
Epoch time:      103013.86380863
Element set:     485 
Inclination:       99.1879 deg
RA of node:        31.4915 deg
Eccentricity:    0.0008968
Arg of perigee:   333.5995 deg
Mean anomaly:      26.4719 deg
Mean motion:   14.13282202 rev/day
Decay rate:    1.4400E-006 rev/day^2
Epoch rev:           41443
Checksum:              318

Satellite: HIMAWARI 5 (GM
Catalog number: 23522
Epoch time:      103013.45134042
Element set:     52 
Inclination:        1.6854 deg
RA of node:        83.6172 deg
Eccentricity:    0.0000847
Arg of perigee:    93.8509 deg
Mean anomaly:     237.7617 deg
Mean motion:    1.00270258 rev/day
Decay rate:   -2.6200E-006 rev/day^2
Epoch rev:            2852
Checksum:              270

Satellite: HOT BIRD 1
Catalog number: 23537
Epoch time:      103013.80550721
Element set:     533 
Inclination:        0.0070 deg
RA of node:       236.2796 deg
Eccentricity:    0.0008090
Arg of perigee:    86.9786 deg
Mean anomaly:      92.5958 deg
Mean motion:    1.00275871 rev/day
Decay rate:    1.0700E-006 rev/day^2
Epoch rev:            2861
Checksum:              279

Satellite: GOES 9
Catalog number: 23581
Epoch time:      103013.29570715
Element set:     470 
Inclination:        0.3686 deg
RA of node:       278.0518 deg
Eccentricity:    0.0007891
Arg of perigee:   225.9782 deg
Mean anomaly:     307.5285 deg
Mean motion:    1.00033925 rev/day
Decay rate:    9.5000E-007 rev/day^2
Epoch rev:            2800
Checksum:              289

Satellite: INSAT 2C
Catalog number: 23731
Epoch time:      103011.91745625
Element set:     868 
Inclination:        0.7007 deg
RA of node:       108.8069 deg
Eccentricity:    0.0004353
Arg of perigee:    64.5157 deg
Mean anomaly:     315.8843 deg
Mean motion:    1.00275593 rev/day
Decay rate:    1.4099E-006 rev/day^2
Epoch rev:            2601
Checksum:              284

Satellite: INMARSAT 3-F1
Catalog number: 23839
Epoch time:      103013.71118678
Element set:     849 
Inclination:        0.0470 deg
RA of node:        11.7908 deg
Eccentricity:    0.0005070
Arg of perigee:   300.5570 deg
Mean anomaly:     120.2903 deg
Mean motion:    1.00273062 rev/day
Decay rate:    3.6000E-007 rev/day^2
Epoch rev:            2485
Checksum:              248

Satellite: ASTRA 1F
Catalog number: 23842
Epoch time:      103013.00000000
Element set:     556 
Inclination:        0.0122 deg
RA of node:       319.8851 deg
Eccentricity:    0.0002995
Arg of perigee:    65.1991 deg
Mean anomaly:     106.1837 deg
Mean motion:    1.00273184 rev/day
Decay rate:    1.3899E-006 rev/day^2
Epoch rev:            2475
Checksum:              254

Satellite: JAS 2
Catalog number: 24278
Epoch time:      103012.93309748
Element set:     562 
Inclination:       98.5293 deg
RA of node:       169.1350 deg
Eccentricity:    0.0350290
Arg of perigee:   311.5896 deg
Mean anomaly:      45.5704 deg
Mean motion:   13.52868358 rev/day
Decay rate:   -9.9999E-009 rev/day^2
Epoch rev:           31635
Checksum:              354

Satellite: UNAMSAT
Catalog number: 24305
Epoch time:      103012.84428602
Element set:     668 
Inclination:       82.9302 deg
RA of node:       289.9356 deg
Eccentricity:    0.0030327
Arg of perigee:   309.7757 deg
Mean anomaly:      50.0718 deg
Mean motion:   13.73447748 rev/day
Decay rate:    2.0499E-006 rev/day^2
Epoch rev:           31844
Checksum:              320

Satellite: INMARSAT 3-F2
Catalog number: 24307
Epoch time:      103012.98737270
Element set:     70 
Inclination:        0.0552 deg
RA of node:         5.5545 deg
Eccentricity:    0.0004747
Arg of perigee:   290.4543 deg
Mean anomaly:     155.9786 deg
Mean motion:    1.00272725 rev/day
Decay rate:   -1.0400E-006 rev/day^2
Epoch rev:            2325
Checksum:              370

Satellite: HOT BIRD 2
Catalog number: 24665
Epoch time:      103013.80550721
Element set:     339 
Inclination:        0.0284 deg
RA of node:       278.7326 deg
Eccentricity:    0.0008090
Arg of perigee:    44.5257 deg
Mean anomaly:      92.5403 deg
Mean motion:    1.00273403 rev/day
Decay rate:    1.0700E-006 rev/day^2
Epoch rev:            2290
Checksum:              247

Satellite: INMARSAT 3-F3
Catalog number: 24674
Epoch time:      103011.24401554
Element set:     967 
Inclination:        0.0567 deg
RA of node:         7.1162 deg
Eccentricity:    0.0004073
Arg of perigee:   270.4136 deg
Mean anomaly:      98.8116 deg
Mean motion:    1.00275517 rev/day
Decay rate:    5.5999E-007 rev/day^2
Epoch rev:            2220
Checksum:              274

Satellite: GOES 10
Catalog number: 24786
Epoch time:      103013.36628213
Element set:     500 
Inclination:        0.0511 deg
RA of node:       112.4014 deg
Eccentricity:    0.0003104
Arg of perigee:   206.6941 deg
Mean anomaly:     149.9641 deg
Mean motion:    1.00279596 rev/day
Decay rate:    1.0700E-006 rev/day^2
Epoch rev:            2097
Checksum:              241

Satellite: INMARSAT 3-F4
Catalog number: 24819
Epoch time:      103013.17016638
Element set:     865 
Inclination:        0.0686 deg
RA of node:       297.8154 deg
Eccentricity:    0.0003903
Arg of perigee:   358.0496 deg
Mean anomaly:     183.5915 deg
Mean motion:    1.00271479 rev/day
Decay rate:   -2.6600E-006 rev/day^2
Epoch rev:            2064
Checksum:              408

Satellite: FENGYUN 2A
Catalog number: 24834
Epoch time:      103008.98957809
Element set:     942 
Inclination:        2.4721 deg
RA of node:        88.7751 deg
Eccentricity:    0.0002867
Arg of perigee:   256.9049 deg
Mean anomaly:     204.9633 deg
Mean motion:    1.00265824 rev/day
Decay rate:   -1.8800E-006 rev/day^2
Epoch rev:            2043
Checksum:              311

Satellite: ORBVIEW 2 (SEA
Catalog number: 24883
Epoch time:      103013.87600515
Element set:     11 
Inclination:       98.2216 deg
RA of node:       115.1729 deg
Eccentricity:    0.0001346
Arg of perigee:   350.0285 deg
Mean anomaly:      10.0887 deg
Mean motion:   14.59142981 rev/day
Decay rate:    6.6100E-006 rev/day^2
Epoch rev:           29014
Checksum:              271

Satellite: HOT BIRD 3
Catalog number: 24931
Epoch time:      103013.80550721
Element set:     420 
Inclination:        0.0673 deg
RA of node:       233.2523 deg
Eccentricity:    0.0010443
Arg of perigee:   100.7649 deg
Mean anomaly:      81.7511 deg
Mean motion:    1.00274844 rev/day
Decay rate:    1.0700E-006 rev/day^2
Epoch rev:            1972
Checksum:              232

Satellite: METEOSAT 7
Catalog number: 24932
Epoch time:      103013.20133103
Element set:     226 
Inclination:        0.1322 deg
RA of node:        40.9545 deg
Eccentricity:    0.0001236
Arg of perigee:   223.2714 deg
Mean anomaly:     280.4269 deg
Mean motion:    1.00272822 rev/day
Decay rate:    1.5000E-007 rev/day^2
Epoch rev:            1965
Checksum:              223

Satellite: MAQSAT H
Catalog number: 25023
Epoch time:      103014.53048565
Element set:     737 
Inclination:        7.6804 deg
RA of node:        81.0304 deg
Eccentricity:    0.6496059
Arg of perigee:    98.5146 deg
Mean anomaly:     334.5006 deg
Mean motion:    3.09236578 rev/day
Decay rate:   -3.0999E-007 rev/day^2
Epoch rev:            5870
Checksum:              312

Satellite: MAQSAT B
Catalog number: 25024
Epoch time:      103012.22488929
Element set:     659 
Inclination:        7.7339 deg
RA of node:        78.5003 deg
Eccentricity:    0.6504597
Arg of perigee:   103.0276 deg
Mean anomaly:     332.0376 deg
Mean motion:    3.08735532 rev/day
Decay rate:    4.7999E-007 rev/day^2
Epoch rev:            5868
Checksum:              326

Satellite: TEAMSAT
Catalog number: 25025
Epoch time:      103014.28896204
Element set:     656 
Inclination:        7.7194 deg
RA of node:        83.7196 deg
Eccentricity:    0.6507351
Arg of perigee:    92.8875 deg
Mean anomaly:     337.4394 deg
Mean motion:    3.07892472 rev/day
Decay rate:    3.8999E-007 rev/day^2
Epoch rev:            5857
Checksum:              355

Satellite: ASTRA 1G
Catalog number: 25071
Epoch time:      103013.00000000
Element set:     387 
Inclination:        0.0122 deg
RA of node:       319.8851 deg
Eccentricity:    0.0002995
Arg of perigee:    65.1991 deg
Mean anomaly:     106.1633 deg
Mean motion:    1.00273184 rev/day
Decay rate:    1.3899E-006 rev/day^2
Epoch rev:            1877
Checksum:              251

Satellite: INMARSAT 3-F5
Catalog number: 25153
Epoch time:      103013.96737848
Element set:     831 
Inclination:        0.4464 deg
RA of node:       359.2947 deg
Eccentricity:    0.0003345
Arg of perigee:   281.3118 deg
Mean anomaly:     205.6541 deg
Mean motion:    1.00275505 rev/day
Decay rate:    1.6100E-006 rev/day^2
Epoch rev:            1814
Checksum:              277

Satellite: HOT BIRD 4
Catalog number: 25237
Epoch time:      103013.80550721
Element set:     325 
Inclination:        0.0242 deg
RA of node:       116.4838 deg
Eccentricity:    0.0007929
Arg of perigee:   193.6371 deg
Mean anomaly:     105.7449 deg
Mean motion:    1.00276095 rev/day
Decay rate:    1.0700E-006 rev/day^2
Epoch rev:            1818
Checksum:              265

Satellite: NOAA 15
Catalog number: 25338
Epoch time:      103013.90977793
Element set:     968 
Inclination:       98.5510 deg
RA of node:        37.0256 deg
Eccentricity:    0.0011379
Arg of perigee:    63.1651 deg
Mean anomaly:     297.0692 deg
Mean motion:   14.24226333 rev/day
Decay rate:    1.8700E-006 rev/day^2
Epoch rev:           24272
Checksum:              314

